Time,TemperatureF,DewpointF,PressureIn,WindDirection,WindDirectionDegrees,WindSpeedMPH,WindSpeedGustMPH,Humidity,HourlyPrecipIn,Conditions,Clouds,dailyrainin,SoftwareType,DateUTC
2013-01-20 00:03:00,53.2,32.4,30.08,West,259,1.0,2.0,45,0.00,,,0.00,Wunderground v.1.15,2013-01-20 08:03:00,
2013-01-20 00:08:00,52.6,32.4,30.08,West,259,1.0,2.0,46,0.00,,,0.00,Wunderground v.1.15,2013-01-20 08:08:00,
2013-01-20 00:13:00,52.3,31.6,30.08,West,259,0.0,2.0,45,0.00,,,0.00,Wunderground v.1.15,2013-01-20 08:13:00,
2013-01-20 00:18:00,52.2,31.5,30.08,West,259,0.0,2.0,45,0.00,,,0.00,Wunderground v.1.15,2013-01-20 08:18:00,
2013-01-20 00:23:00,52.2,31.5,30.08,West,259,0.0,2.0,45,0.00,,,0.00,Wunderground v.1.15,2013-01-20 08:23:00,
2013-01-20 00:28:00,52.2,31.5,30.08,West,259,0.0,2.0,45,0.00,,,0.00,Wunderground v.1.15,2013-01-20 08:28:00,
2013-01-20 00:33:00,52.2,32.0,30.08,West,259,0.0,0.0,46,0.00,,,0.00,Wunderground v.1.15,2013-01-20 08:33:00,
2013-01-20 00:38:00,51.9,31.7,30.08,West,259,0.0,1.0,46,0.00,,,0.00,Wunderground v.1.15,2013-01-20 08:38:00,
2013-01-20 00:43:00,52.0,31.8,30.07,West,259,2.0,3.0,46,0.00,,,0.00,Wunderground v.1.15,2013-01-20 08:43:00,
2013-01-20 00:48:00,52.3,32.1,30.07,West,259,0.0,3.0,46,0.00,,,0.00,Wunderground v.1.15,2013-01-20 08:48:00,
2013-01-20 00:53:00,52.2,32.0,30.07,West,259,0.0,2.0,46,0.00,,,0.00,Wunderground v.1.15,2013-01-20 08:53:00,
2013-01-20 00:58:00,52.2,31.5,30.07,West,259,0.0,2.0,45,0.00,,,0.00,Wunderground v.1.15,2013-01-20 08:58:00,
2013-01-20 01:03:00,52.2,32.0,30.07,West,259,0.0,0.0,46,0.00,,,0.00,Wunderground v.1.15,2013-01-20 09:03:00,
2013-01-20 01:08:00,52.0,31.8,30.07,West,259,0.0,2.0,46,0.00,,,0.00,Wunderground v.1.15,2013-01-20 09:08:00,
2013-01-20 01:13:00,51.9,31.2,30.08,West,259,0.0,0.0,45,0.00,,,0.00,Wunderground v.1.15,2013-01-20 09:13:00,
2013-01-20 01:18:00,51.6,31.5,30.08,West,259,0.0,0.0,46,0.00,,,0.00,Wunderground v.1.15,2013-01-20 09:18:00,
2013-01-20 01:23:00,51.4,30.2,30.08,West,259,0.0,2.0,44,0.00,,,0.00,Wunderground v.1.15,2013-01-20 09:23:00,
2013-01-20 01:28:00,51.6,31.5,30.08,West,259,2.0,2.0,46,0.00,,,0.00,Wunderground v.1.15,2013-01-20 09:28:00,
2013-01-20 01:33:00,52.0,30.2,30.08,West,259,0.0,3.0,43,0.00,,,0.00,Wunderground v.1.15,2013-01-20 09:33:00,
2013-01-20 01:38:00,52.5,30.6,30.08,West,259,0.0,3.0,43,0.00,,,0.00,Wunderground v.1.15,2013-01-20 09:38:00,
2013-01-20 01:43:00,52.6,30.1,30.08,West,259,0.0,2.0,42,0.00,,,0.00,Wunderground v.1.15,2013-01-20 09:43:00,
2013-01-20 01:48:00,52.5,31.2,30.08,West,259,0.0,2.0,44,0.00,,,0.00,Wunderground v.1.15,2013-01-20 09:48:00,
2013-01-20 01:53:00,52.2,30.9,30.08,West,259,0.0,2.0,44,0.00,,,0.00,Wunderground v.1.15,2013-01-20 09:53:00,
2013-01-20 01:59:00,51.9,30.6,30.08,West,259,0.0,2.0,44,0.00,,,0.00,Wunderground v.1.15,2013-01-20 09:59:00,
2013-01-20 02:04:00,51.7,30.5,30.08,West,259,0.0,2.0,44,0.00,,,0.00,Wunderground v.1.15,2013-01-20 10:04:00,
2013-01-20 02:09:00,51.1,31.0,30.08,West,259,0.0,2.0,46,0.00,,,0.00,Wunderground v.1.15,2013-01-20 10:09:00,
2013-01-20 02:14:00,51.0,30.4,30.08,West,259,3.0,3.0,45,0.00,,,0.00,Wunderground v.1.15,2013-01-20 10:14:00,
2013-01-20 02:19:00,51.4,30.2,30.08,West,259,1.0,3.0,44,0.00,,,0.00,Wunderground v.1.15,2013-01-20 10:19:00,
2013-01-20 02:24:00,51.6,29.8,30.08,West,259,0.0,1.0,43,0.00,,,0.00,Wunderground v.1.15,2013-01-20 10:24:00,
2013-01-20 02:29:00,51.6,30.4,30.07,West,259,0.0,3.0,44,0.00,,,0.00,Wunderground v.1.15,2013-01-20 10:29:00,
2013-01-20 02:34:00,51.1,30.5,30.07,West,259,0.0,0.0,45,0.00,,,0.00,Wunderground v.1.15,2013-01-20 10:34:00,
2013-01-20 02:39:00,50.8,30.2,30.07,West,259,1.0,1.0,45,0.00,,,0.00,Wunderground v.1.15,2013-01-20 10:39:00,
2013-01-20 02:44:00,50.7,31.2,30.07,West,259,0.0,1.0,47,0.00,,,0.00,Wunderground v.1.15,2013-01-20 10:44:00,
2013-01-20 02:49:00,50.5,29.9,30.07,West,259,0.0,1.0,45,0.00,,,0.00,Wunderground v.1.15,2013-01-20 10:49:00,
2013-01-20 02:54:00,50.5,29.4,30.07,West,259,0.0,1.0,44,0.00,,,0.00,Wunderground v.1.15,2013-01-20 10:54:00,
2013-01-20 02:59:00,50.7,29.6,30.07,West,259,0.0,1.0,44,0.00,,,0.00,Wunderground v.1.15,2013-01-20 10:59:00,
2013-01-20 03:04:00,50.8,29.6,30.07,West,259,0.0,2.0,44,0.00,,,0.00,Wunderground v.1.15,2013-01-20 11:04:00,
2013-01-20 03:09:00,50.8,30.2,30.07,West,259,0.0,2.0,45,0.00,,,0.00,Wunderground v.1.15,2013-01-20 11:09:00,
2013-01-20 03:14:00,50.8,30.2,30.07,West,259,1.0,1.0,45,0.00,,,0.00,Wunderground v.1.15,2013-01-20 11:14:00,
2013-01-20 03:19:00,51.1,30.5,30.07,West,259,0.0,1.0,45,0.00,,,0.00,Wunderground v.1.15,2013-01-20 11:19:00,
2013-01-20 03:24:00,51.4,29.6,30.07,West,259,0.0,1.0,43,0.00,,,0.00,Wunderground v.1.15,2013-01-20 11:24:00,
2013-01-20 03:29:00,51.3,30.1,30.06,West,259,0.0,1.0,44,0.00,,,0.00,Wunderground v.1.15,2013-01-20 11:29:00,
2013-01-20 03:34:00,51.4,30.7,30.06,West,259,0.0,1.0,45,0.00,,,0.00,Wunderground v.1.15,2013-01-20 11:34:00,
2013-01-20 03:39:00,51.3,30.7,30.06,West,259,0.0,2.0,45,0.00,,,0.00,Wunderground v.1.15,2013-01-20 11:39:00,
2013-01-20 03:44:00,51.0,30.4,30.06,West,259,0.0,2.0,45,0.00,,,0.00,Wunderground v.1.15,2013-01-20 11:44:00,
2013-01-20 03:49:00,51.0,30.4,30.06,West,259,0.0,2.0,45,0.00,,,0.00,Wunderground v.1.15,2013-01-20 11:49:00,
2013-01-20 03:54:00,51.1,30.5,30.06,West,259,1.0,2.0,45,0.00,,,0.00,Wunderground v.1.15,2013-01-20 11:54:00,
2013-01-20 03:59:00,51.1,30.5,30.06,West,259,0.0,2.0,45,0.00,,,0.00,Wunderground v.1.15,2013-01-20 11:59:00,
2013-01-20 04:04:00,51.1,30.5,30.06,West,259,0.0,0.0,45,0.00,,,0.00,Wunderground v.1.15,2013-01-20 12:04:00,
2013-01-20 04:09:00,51.0,30.9,30.06,West,259,0.0,2.0,46,0.00,,,0.00,Wunderground v.1.15,2013-01-20 12:09:00,
2013-01-20 04:14:00,51.0,30.4,30.06,West,259,0.0,0.0,45,0.00,,,0.00,Wunderground v.1.15,2013-01-20 12:14:00,
2013-01-20 04:19:00,51.0,30.4,30.06,West,259,0.0,3.0,45,0.00,,,0.00,Wunderground v.1.15,2013-01-20 12:19:00,
2013-01-20 04:24:00,51.1,29.9,30.06,West,259,0.0,2.0,44,0.00,,,0.00,Wunderground v.1.15,2013-01-20 12:24:00,
2013-01-20 04:29:00,51.4,30.7,30.06,West,259,1.0,2.0,45,0.00,,,0.00,Wunderground v.1.15,2013-01-20 12:29:00,
2013-01-20 04:34:00,51.3,30.7,30.06,West,259,1.0,3.0,45,0.00,,,0.00,Wunderground v.1.15,2013-01-20 12:34:00,
2013-01-20 04:39:00,51.3,30.7,30.06,WSW,243,0.0,3.0,45,0.00,,,0.00,Wunderground v.1.15,2013-01-20 12:39:00,
2013-01-20 04:44:00,51.3,31.2,30.06,WSW,243,0.0,3.0,46,0.00,,,0.00,Wunderground v.1.15,2013-01-20 12:44:00,
2013-01-20 04:49:00,51.1,30.5,30.06,WSW,243,0.0,3.0,45,0.00,,,0.00,Wunderground v.1.15,2013-01-20 12:49:00,
2013-01-20 04:54:00,51.4,30.2,30.06,WSW,243,0.0,2.0,44,0.00,,,0.00,Wunderground v.1.15,2013-01-20 12:54:00,
2013-01-20 04:59:00,51.7,29.3,30.06,WSW,243,0.0,2.0,42,0.00,,,0.00,Wunderground v.1.15,2013-01-20 12:59:00,
2013-01-20 05:04:00,52.0,31.3,30.06,WSW,243,0.0,3.0,45,0.00,,,0.00,Wunderground v.1.15,2013-01-20 13:04:00,
2013-01-20 05:09:00,52.2,30.4,30.06,WSW,243,1.0,3.0,43,0.00,,,0.00,Wunderground v.1.15,2013-01-20 13:09:00,
2013-01-20 05:14:00,52.2,30.4,30.06,WSW,243,0.0,3.0,43,0.00,,,0.00,Wunderground v.1.15,2013-01-20 13:14:00,
2013-01-20 05:19:00,52.5,30.0,30.06,WSW,243,0.0,3.0,42,0.00,,,0.00,Wunderground v.1.15,2013-01-20 13:19:00,
2013-01-20 05:24:00,52.8,30.3,30.06,WSW,243,0.0,2.0,42,0.00,,,0.00,Wunderground v.1.15,2013-01-20 13:24:00,
2013-01-20 05:29:00,52.9,29.8,30.06,WSW,243,0.0,2.0,41,0.00,,,0.00,Wunderground v.1.15,2013-01-20 13:29:00,
2013-01-20 05:34:00,53.2,30.1,30.06,WSW,243,0.0,2.0,41,0.00,,,0.00,Wunderground v.1.15,2013-01-20 13:34:00,
2013-01-20 05:39:00,53.3,30.2,30.06,WSW,243,0.0,2.0,41,0.00,,,0.00,Wunderground v.1.15,2013-01-20 13:39:00,
2013-01-20 05:44:00,53.2,29.5,30.05,WSW,243,0.0,1.0,40,0.00,,,0.00,Wunderground v.1.15,2013-01-20 13:44:00,
2013-01-20 05:49:00,53.3,30.2,30.05,WSW,243,0.0,3.0,41,0.00,,,0.00,Wunderground v.1.15,2013-01-20 13:49:00,
2013-01-20 05:54:00,53.6,29.2,30.05,WSW,245,0.0,4.0,39,0.00,,,0.00,Wunderground v.1.15,2013-01-20 13:54:00,
2013-01-20 05:59:00,54.4,28.0,30.05,WSW,245,0.0,4.0,36,0.00,,,0.00,Wunderground v.1.15,2013-01-20 13:59:00,
2013-01-20 06:04:00,55.0,29.2,30.05,WSW,245,0.0,1.0,37,0.00,,,0.00,Wunderground v.1.15,2013-01-20 14:04:00,
2013-01-20 06:09:00,55.0,29.8,30.05,WSW,245,0.0,3.0,38,0.00,,,0.00,Wunderground v.1.15,2013-01-20 14:09:00,
2013-01-20 06:14:00,54.8,29.7,30.05,WSW,245,0.0,2.0,38,0.00,,,0.00,Wunderground v.1.15,2013-01-20 14:14:00,
2013-01-20 06:19:00,54.5,30.0,30.05,West,272,3.0,4.0,39,0.00,,,0.00,Wunderground v.1.15,2013-01-20 14:19:00,
2013-01-20 06:24:00,54.7,30.2,30.05,West,272,0.0,3.0,39,0.00,,,0.00,Wunderground v.1.15,2013-01-20 14:24:00,
2013-01-20 06:29:00,54.4,29.9,30.06,West,272,0.0,3.0,39,0.00,,,0.00,Wunderground v.1.15,2013-01-20 14:29:00,
2013-01-20 06:34:00,53.9,30.7,30.06,West,272,0.0,1.0,41,0.00,,,0.00,Wunderground v.1.15,2013-01-20 14:34:00,
2013-01-20 06:39:00,53.5,30.4,30.06,West,272,0.0,2.0,41,0.00,,,0.00,Wunderground v.1.15,2013-01-20 14:39:00,
2013-01-20 06:44:00,53.2,30.7,30.06,West,272,0.0,0.0,42,0.00,,,0.00,Wunderground v.1.15,2013-01-20 14:44:00,
2013-01-20 06:49:00,53.1,30.0,30.06,NNW,342,0.0,2.0,41,0.00,,,0.00,Wunderground v.1.15,2013-01-20 14:49:00,
2013-01-20 06:54:00,53.1,30.0,30.06,NNW,342,0.0,1.0,41,0.00,,,0.00,Wunderground v.1.15,2013-01-20 14:54:00,
2013-01-20 06:59:00,52.9,29.2,30.06,NNW,342,0.0,1.0,40,0.00,,,0.00,Wunderground v.1.15,2013-01-20 14:59:00,
2013-01-20 07:04:00,52.6,29.5,30.06,NNW,342,0.0,1.0,41,0.00,,,0.00,Wunderground v.1.15,2013-01-20 15:04:00,
2013-01-20 07:09:00,52.3,30.4,30.06,NNW,342,0.0,1.0,43,0.00,,,0.00,Wunderground v.1.15,2013-01-20 15:09:00,
2013-01-20 07:14:00,52.2,30.4,30.06,NNW,342,0.0,0.0,43,0.00,,,0.00,Wunderground v.1.15,2013-01-20 15:14:00,
2013-01-20 07:19:00,51.9,29.5,30.06,NNW,342,1.0,1.0,42,0.00,,,0.00,Wunderground v.1.15,2013-01-20 15:19:00,
2013-01-20 07:24:00,52.0,30.2,30.06,NNW,342,0.0,2.0,43,0.00,,,0.00,Wunderground v.1.15,2013-01-20 15:24:00,
2013-01-20 07:29:00,52.2,29.8,30.06,NNW,342,0.0,2.0,42,0.00,,,0.00,Wunderground v.1.15,2013-01-20 15:29:00,
2013-01-20 07:34:00,52.5,30.6,30.06,NNW,342,0.0,1.0,43,0.00,,,0.00,Wunderground v.1.15,2013-01-20 15:34:00,
2013-01-20 07:39:00,52.6,30.7,30.06,NNW,342,0.0,1.0,43,0.00,,,0.00,Wunderground v.1.15,2013-01-20 15:39:00,
2013-01-20 07:44:00,52.8,31.5,30.06,NNW,342,0.0,2.0,44,0.00,,,0.00,Wunderground v.1.15,2013-01-20 15:44:00,
2013-01-20 07:49:00,52.8,32.0,30.06,NNW,342,0.0,2.0,45,0.00,,,0.00,Wunderground v.1.15,2013-01-20 15:49:00,
2013-01-20 07:54:00,52.9,31.6,30.06,NNW,342,0.0,0.0,44,0.00,,,0.00,Wunderground v.1.15,2013-01-20 15:54:00,
2013-01-20 07:59:00,53.1,31.7,30.06,NNW,342,0.0,0.0,44,0.00,,,0.00,Wunderground v.1.15,2013-01-20 15:59:00,
2013-01-20 08:04:00,53.2,34.0,30.06,North,354,0.0,2.0,48,0.00,,,0.00,Wunderground v.1.15,2013-01-20 16:04:00,
2013-01-20 08:09:00,53.5,33.2,30.06,North,354,0.0,2.0,46,0.00,,,0.00,Wunderground v.1.15,2013-01-20 16:09:00,
2013-01-20 08:14:00,53.8,32.9,30.07,North,354,0.0,1.0,45,0.00,,,0.00,Wunderground v.1.15,2013-01-20 16:14:00,
2013-01-20 08:19:00,54.2,33.9,30.07,North,354,0.0,2.0,46,0.00,,,0.00,Wunderground v.1.15,2013-01-20 16:19:00,
2013-01-20 08:24:00,55.0,34.0,30.07,North,354,0.0,0.0,45,0.00,,,0.00,Wunderground v.1.15,2013-01-20 16:24:00,
2013-01-20 08:29:00,56.0,32.0,30.07,North,354,0.0,1.0,40,0.00,,,0.00,Wunderground v.1.15,2013-01-20 16:29:00,
2013-01-20 08:34:00,58.6,31.7,30.07,SE,128,3.0,6.0,36,0.00,,,0.00,Wunderground v.1.15,2013-01-20 16:34:00,
2013-01-20 08:39:00,59.9,32.9,30.07,East,97,1.0,6.0,36,0.00,,,0.00,Wunderground v.1.15,2013-01-20 16:39:00,
2013-01-20 08:44:00,61.2,31.1,30.07,ESE,115,2.0,6.0,32,0.00,,,0.00,Wunderground v.1.15,2013-01-20 16:44:00,
2013-01-20 08:49:00,61.6,32.9,30.07,East,86,0.0,6.0,34,0.00,,,0.00,Wunderground v.1.15,2013-01-20 16:49:00,
2013-01-20 08:54:00,61.5,32.8,30.07,ESE,114,0.0,4.0,34,0.00,,,0.00,Wunderground v.1.15,2013-01-20 16:54:00,
2013-01-20 08:59:00,61.6,31.4,30.07,ESE,106,1.0,4.0,32,0.00,,,0.00,Wunderground v.1.15,2013-01-20 16:59:00,
2013-01-20 09:04:00,62.0,31.0,30.07,ESE,106,0.0,3.0,31,0.00,,,0.00,Wunderground v.1.15,2013-01-20 17:04:00,
2013-01-20 09:09:00,62.3,31.3,30.07,ESE,117,0.0,3.0,31,0.00,,,0.00,Wunderground v.1.15,2013-01-20 17:09:00,
2013-01-20 09:14:00,62.4,34.4,30.07,ESE,117,0.0,1.0,35,0.00,,,0.00,Wunderground v.1.15,2013-01-20 17:14:00,
2013-01-20 09:19:00,62.6,34.5,30.07,ENE,66,0.0,2.0,35,0.00,,,0.00,Wunderground v.1.15,2013-01-20 17:19:00,
2013-01-20 09:24:00,62.7,36.0,30.07,East,79,1.0,2.0,37,0.00,,,0.00,Wunderground v.1.15,2013-01-20 17:24:00,
2013-01-20 09:29:00,62.9,32.6,30.07,ESE,109,0.0,4.0,32,0.00,,,0.00,Wunderground v.1.15,2013-01-20 17:29:00,
2013-01-20 09:34:00,63.4,33.0,30.07,East,101,0.0,2.0,32,0.00,,,0.00,Wunderground v.1.15,2013-01-20 17:34:00,
2013-01-20 09:39:00,64.0,31.1,30.07,ESE,115,3.0,4.0,29,0.00,,,0.00,Wunderground v.1.15,2013-01-20 17:39:00,
2013-01-20 09:44:00,65.0,30.2,30.07,SE,128,0.0,3.0,27,0.00,,,0.00,Wunderground v.1.15,2013-01-20 17:44:00,
2013-01-20 09:49:00,65.8,30.9,30.07,ESE,115,0.0,4.0,27,0.00,,,0.00,Wunderground v.1.15,2013-01-20 17:49:00,
2013-01-20 09:54:00,66.4,32.3,30.07,ESE,109,2.0,4.0,28,0.00,,,0.00,Wunderground v.1.15,2013-01-20 17:54:00,
2013-01-20 09:59:00,66.9,29.9,30.07,SE,136,0.0,4.0,25,0.00,,,0.00,Wunderground v.1.15,2013-01-20 17:59:00,
2013-01-20 10:04:00,67.6,30.5,30.07,East,80,1.0,4.0,25,0.00,,,0.00,Wunderground v.1.15,2013-01-20 18:04:00,
2013-01-20 10:09:00,68.1,30.9,30.07,NE,55,1.0,4.0,25,0.00,,,0.00,Wunderground v.1.15,2013-01-20 18:09:00,
2013-01-20 10:14:00,68.4,33.1,30.07,ESE,120,0.0,5.0,27,0.00,,,0.00,Wunderground v.1.15,2013-01-20 18:14:00,
2013-01-20 10:19:00,68.4,31.2,30.07,ESE,117,4.0,6.0,25,0.00,,,0.00,Wunderground v.1.15,2013-01-20 18:19:00,
2013-01-20 10:24:00,68.4,32.1,30.07,ESE,110,3.0,6.0,26,0.00,,,0.00,Wunderground v.1.15,2013-01-20 18:24:00,
2013-01-20 10:29:00,68.3,31.1,30.07,ESE,109,5.0,6.0,25,0.00,,,0.00,Wunderground v.1.15,2013-01-20 18:29:00,
2013-01-20 10:34:00,68.4,31.2,30.07,ESE,105,3.0,5.0,25,0.00,,,0.00,Wunderground v.1.15,2013-01-20 18:34:00,
2013-01-20 10:39:00,68.8,33.4,30.07,ESE,122,2.0,7.0,27,0.00,,,0.00,Wunderground v.1.15,2013-01-20 18:39:00,
2013-01-20 10:44:00,68.9,31.6,30.07,ESE,112,6.0,6.0,25,0.00,,,0.00,Wunderground v.1.15,2013-01-20 18:44:00,
2013-01-20 10:49:00,69.1,31.8,30.07,ESE,117,9.0,9.0,25,0.00,,,0.00,Wunderground v.1.15,2013-01-20 18:49:00,
2013-01-20 10:54:00,69.1,30.8,30.07,SE,126,2.0,9.0,24,0.00,,,0.00,Wunderground v.1.15,2013-01-20 18:54:00,
2013-01-20 10:59:00,69.1,31.8,30.06,East,89,5.0,9.0,25,0.00,,,0.00,Wunderground v.1.15,2013-01-20 18:59:00,
2013-01-20 11:04:00,69.3,31.9,30.06,ESE,118,3.0,7.0,25,0.00,,,0.00,Wunderground v.1.15,2013-01-20 19:04:00,
2013-01-20 11:09:00,69.6,31.2,30.06,ESE,111,4.0,8.0,24,0.00,,,0.00,Wunderground v.1.15,2013-01-20 19:09:00,
2013-01-20 11:14:00,69.8,31.4,30.06,East,94,4.0,7.0,24,0.00,,,0.00,Wunderground v.1.15,2013-01-20 19:14:00,
2013-01-20 11:19:00,69.9,32.5,30.06,ESE,122,6.0,7.0,25,0.00,,,0.00,Wunderground v.1.15,2013-01-20 19:19:00,
2013-01-20 11:24:00,70.1,31.6,30.06,SE,124,5.0,10.0,24,0.00,,,0.00,Wunderground v.1.15,2013-01-20 19:24:00,
2013-01-20 11:29:00,70.1,32.6,30.05,ESE,121,3.0,13.0,25,0.00,,,0.00,Wunderground v.1.15,2013-01-20 19:29:00,
2013-01-20 11:34:00,70.3,30.7,30.05,ESE,111,4.0,8.0,23,0.00,,,0.00,Wunderground v.1.15,2013-01-20 19:34:00,
2013-01-20 11:39:00,70.4,32.9,30.05,ESE,113,3.0,9.0,25,0.00,,,0.00,Wunderground v.1.15,2013-01-20 19:39:00,
2013-01-20 11:44:00,70.8,32.2,30.04,ESE,103,3.0,6.0,24,0.00,,,0.00,Wunderground v.1.15,2013-01-20 19:44:00,
2013-01-20 11:49:00,70.9,33.3,30.04,SE,143,4.0,9.0,25,0.00,,,0.00,Wunderground v.1.15,2013-01-20 19:49:00,
2013-01-20 11:54:00,71.1,31.4,30.04,ESE,105,3.0,9.0,23,0.00,,,0.00,Wunderground v.1.15,2013-01-20 19:54:00,
2013-01-20 11:59:00,71.6,32.9,30.03,ESE,108,1.0,10.0,24,0.00,,,0.00,Wunderground v.1.15,2013-01-20 19:59:00,
2013-01-20 12:04:00,71.8,30.9,30.03,East,84,2.0,7.0,22,0.00,,,0.00,Wunderground v.1.15,2013-01-20 20:04:00,
2013-01-20 12:09:00,72.1,32.2,30.03,East,84,7.0,7.0,23,0.00,,,0.00,Wunderground v.1.15,2013-01-20 20:09:00,
2013-01-20 12:14:00,72.3,30.1,30.02,ESE,102,5.0,6.0,21,0.00,,,0.00,Wunderground v.1.15,2013-01-20 20:14:00,
2013-01-20 12:19:00,72.3,31.3,30.02,ESE,114,6.0,10.0,22,0.00,,,0.00,Wunderground v.1.15,2013-01-20 20:19:00,
2013-01-20 12:24:00,72.7,31.6,30.02,East,95,4.0,7.0,22,0.00,,,0.00,Wunderground v.1.15,2013-01-20 20:24:00,
2013-01-20 12:29:00,72.7,31.6,30.01,East,96,5.0,8.0,22,0.00,,,0.00,Wunderground v.1.15,2013-01-20 20:29:00,
2013-01-20 12:34:00,72.5,31.5,30.01,North,1,3.0,9.0,22,0.00,,,0.00,Wunderground v.1.15,2013-01-20 20:34:00,
2013-01-20 12:39:00,72.5,32.6,30.01,ESE,105,3.0,9.0,23,0.00,,,0.00,Wunderground v.1.15,2013-01-20 20:39:00,
2013-01-20 12:44:00,72.5,32.6,30.00,ESE,113,6.0,9.0,23,0.00,,,0.00,Wunderground v.1.15,2013-01-20 20:44:00,
2013-01-20 12:49:00,72.7,32.7,30.00,ESE,109,4.0,9.0,23,0.00,,,0.00,Wunderground v.1.15,2013-01-20 20:49:00,
2013-01-20 12:54:00,72.8,31.7,30.00,ESE,114,7.0,7.0,22,0.00,,,0.00,Wunderground v.1.15,2013-01-20 20:54:00,
2013-01-20 12:59:00,73.0,30.7,30.00,ESE,114,5.0,7.0,21,0.00,,,0.00,Wunderground v.1.15,2013-01-20 20:59:00,
2013-01-20 13:04:00,73.0,33.0,30.00,ESE,109,4.0,5.0,23,0.00,,,0.00,Wunderground v.1.15,2013-01-20 21:04:00,
2013-01-20 13:09:00,73.2,33.2,30.00,East,81,2.0,5.0,23,0.00,,,0.00,Wunderground v.1.15,2013-01-20 21:09:00,
2013-01-20 13:14:00,73.2,34.2,29.99,East,92,2.0,6.0,24,0.00,,,0.00,Wunderground v.1.15,2013-01-20 21:14:00,
2013-01-20 13:19:00,73.2,34.2,29.99,ESE,107,4.0,6.0,24,0.00,,,0.00,Wunderground v.1.15,2013-01-20 21:19:00,
2013-01-20 13:24:00,73.2,32.1,29.99,East,91,4.0,10.0,22,0.00,,,0.00,Wunderground v.1.15,2013-01-20 21:24:00,
2013-01-20 13:29:00,73.2,30.9,29.99,ENE,70,3.0,10.0,21,0.00,,,0.00,Wunderground v.1.15,2013-01-20 21:29:00,
2013-01-20 13:34:00,73.0,31.9,29.99,ESE,116,3.0,6.0,22,0.00,,,0.00,Wunderground v.1.15,2013-01-20 21:34:00,
2013-01-20 13:40:00,72.8,32.8,29.99,ESE,103,4.0,6.0,23,0.00,,,0.00,Wunderground v.1.15,2013-01-20 21:40:00,
2013-01-20 13:45:00,72.8,29.4,29.98,East,92,2.0,7.0,20,0.00,,,0.00,Wunderground v.1.15,2013-01-20 21:45:00,
2013-01-20 13:50:00,72.8,31.7,29.98,ESE,109,4.0,7.0,22,0.00,,,0.00,Wunderground v.1.15,2013-01-20 21:50:00,
2013-01-20 13:55:00,73.0,30.7,29.98,ESE,113,4.0,6.0,21,0.00,,,0.00,Wunderground v.1.15,2013-01-20 21:55:00,
2013-01-20 14:00:00,73.0,30.7,29.98,East,101,3.0,6.0,21,0.00,,,0.00,Wunderground v.1.15,2013-01-20 22:00:00,
2013-01-20 14:05:00,72.8,31.7,29.98,East,94,3.0,4.0,22,0.00,,,0.00,Wunderground v.1.15,2013-01-20 22:05:00,
2013-01-20 14:10:00,72.7,32.7,29.98,ESE,110,1.0,6.0,23,0.00,,,0.00,Wunderground v.1.15,2013-01-20 22:10:00,
2013-01-20 14:15:00,72.5,32.6,29.98,ESE,120,2.0,4.0,23,0.00,,,0.00,Wunderground v.1.15,2013-01-20 22:15:00,
2013-01-20 14:20:00,72.7,34.8,29.98,ESE,108,5.0,6.0,25,0.00,,,0.00,Wunderground v.1.15,2013-01-20 22:20:00,
2013-01-20 14:25:00,72.5,33.6,29.98,East,98,1.0,5.0,24,0.00,,,0.00,Wunderground v.1.15,2013-01-20 22:25:00,
2013-01-20 14:30:00,72.5,34.7,29.98,ESE,120,0.0,5.0,25,0.00,,,0.00,Wunderground v.1.15,2013-01-20 22:30:00,
2013-01-20 14:35:00,72.1,34.3,29.98,ESE,117,0.0,1.0,25,0.00,,,0.00,Wunderground v.1.15,2013-01-20 22:35:00,
2013-01-20 14:40:00,71.8,34.1,29.98,ESE,117,0.0,1.0,25,0.00,,,0.00,Wunderground v.1.15,2013-01-20 22:40:00,
2013-01-20 14:45:00,71.6,33.9,29.98,ESE,117,0.0,0.0,25,0.00,,,0.00,Wunderground v.1.15,2013-01-20 22:45:00,
2013-01-20 14:50:00,71.6,33.9,29.98,ESE,117,0.0,0.0,25,0.00,,,0.00,Wunderground v.1.15,2013-01-20 22:50:00,
2013-01-20 14:55:00,71.6,33.9,29.98,ESE,117,0.0,0.0,25,0.00,,,0.00,Wunderground v.1.15,2013-01-20 22:55:00,
2013-01-20 15:00:00,71.3,33.6,29.98,ESE,117,0.0,0.0,25,0.00,,,0.00,Wunderground v.1.15,2013-01-20 23:00:00,
2013-01-20 15:05:00,71.3,35.6,29.98,ESE,117,0.0,1.0,27,0.00,,,0.00,Wunderground v.1.15,2013-01-20 23:05:00,
2013-01-20 15:10:00,70.9,35.2,29.98,ESE,117,0.0,0.0,27,0.00,,,0.00,Wunderground v.1.15,2013-01-20 23:10:00,
2013-01-20 15:15:00,70.8,36.1,29.98,ESE,117,0.0,1.0,28,0.00,,,0.00,Wunderground v.1.15,2013-01-20 23:15:00,
2013-01-20 15:20:00,70.4,35.7,29.98,ESE,120,0.0,0.0,28,0.00,,,0.00,Wunderground v.1.15,2013-01-20 23:20:00,
2013-01-20 15:25:00,70.1,37.2,29.98,ESE,120,0.0,1.0,30,0.00,,,0.00,Wunderground v.1.15,2013-01-20 23:25:00,
2013-01-20 15:30:00,69.9,37.0,29.99,West,270,2.0,2.0,30,0.00,,,0.00,Wunderground v.1.15,2013-01-20 23:30:00,
2013-01-20 15:35:00,69.8,37.8,29.99,West,270,2.0,4.0,31,0.00,,,0.00,Wunderground v.1.15,2013-01-20 23:35:00,
2013-01-20 15:40:00,69.1,40.3,29.99,West,270,1.0,2.0,35,0.00,,,0.00,Wunderground v.1.15,2013-01-20 23:40:00,
2013-01-20 15:45:00,68.1,37.9,30.00,West,270,2.0,2.0,33,0.00,,,0.00,Wunderground v.1.15,2013-01-20 23:45:00,
2013-01-20 15:50:00,67.9,35.3,30.00,West,270,3.0,3.0,30,0.00,,,0.00,Wunderground v.1.15,2013-01-20 23:50:00,
2013-01-20 15:55:00,67.9,38.5,30.00,West,270,2.0,4.0,34,0.00,,,0.00,Wunderground v.1.15,2013-01-20 23:55:00,
2013-01-20 16:00:00,67.3,38.7,30.00,West,270,2.0,2.0,35,0.00,,,0.00,Wunderground v.1.15,2013-01-21 00:00:00,
2013-01-20 16:05:00,66.6,36.6,30.00,West,270,2.0,3.0,33,0.00,,,0.00,Wunderground v.1.15,2013-01-21 00:05:00,
2013-01-20 16:10:00,66.3,37.8,30.00,West,270,0.0,2.0,35,0.00,,,0.00,Wunderground v.1.15,2013-01-21 00:10:00,
2013-01-20 16:15:00,65.8,40.1,30.00,West,270,2.0,2.0,39,0.00,,,0.00,Wunderground v.1.15,2013-01-21 00:15:00,
2013-01-20 16:20:00,65.2,40.3,30.00,West,270,0.0,1.0,40,0.00,,,0.00,Wunderground v.1.15,2013-01-21 00:20:00,
2013-01-20 16:25:00,64.3,39.4,30.00,West,270,0.0,2.0,40,0.00,,,0.00,Wunderground v.1.15,2013-01-21 00:25:00,
2013-01-20 16:30:00,63.9,38.4,30.00,West,270,0.0,0.0,39,0.00,,,0.00,Wunderground v.1.15,2013-01-21 00:30:00,
2013-01-20 16:35:00,63.4,36.7,30.00,West,270,0.0,1.0,37,0.00,,,0.00,Wunderground v.1.15,2013-01-21 00:35:00,
2013-01-20 16:40:00,63.4,38.0,30.00,West,270,0.0,0.0,39,0.00,,,0.00,Wunderground v.1.15,2013-01-21 00:40:00,
2013-01-20 16:45:00,63.5,37.4,30.00,West,270,1.0,1.0,38,0.00,,,0.00,Wunderground v.1.15,2013-01-21 00:45:00,
2013-01-20 16:50:00,64.0,35.8,30.00,West,270,0.0,0.0,35,0.00,,,0.00,Wunderground v.1.15,2013-01-21 00:50:00,
2013-01-20 16:55:00,64.2,36.0,30.00,West,270,0.0,1.0,35,0.00,,,0.00,Wunderground v.1.15,2013-01-21 00:55:00,
2013-01-20 17:00:00,64.8,36.5,30.00,West,270,0.0,0.0,35,0.00,,,0.00,Wunderground v.1.15,2013-01-21 01:00:00,
2013-01-20 17:05:00,64.7,35.7,30.00,West,270,0.0,0.0,34,0.00,,,0.00,Wunderground v.1.15,2013-01-21 01:05:00,
2013-01-20 17:10:00,65.0,33.6,30.00,West,270,2.0,2.0,31,0.00,,,0.00,Wunderground v.1.15,2013-01-21 01:10:00,
2013-01-20 17:15:00,64.5,35.5,30.00,West,270,2.0,3.0,34,0.00,,,0.00,Wunderground v.1.15,2013-01-21 01:15:00,
2013-01-20 17:20:00,63.7,38.3,30.00,West,270,3.0,4.0,39,0.00,,,0.00,Wunderground v.1.15,2013-01-21 01:20:00,
2013-01-20 17:25:00,62.0,47.0,30.00,West,266,2.0,4.0,58,0.00,,,0.00,Wunderground v.1.15,2013-01-21 01:25:00,
2013-01-20 17:30:00,60.2,45.8,30.01,WSW,257,0.0,3.0,59,0.00,,,0.00,Wunderground v.1.15,2013-01-21 01:30:00,
2013-01-20 17:35:00,59.0,45.1,30.01,WSW,257,0.0,3.0,60,0.00,,,0.00,Wunderground v.1.15,2013-01-21 01:35:00,
2013-01-20 17:40:00,58.0,43.7,30.01,WSW,257,1.0,2.0,59,0.00,,,0.00,Wunderground v.1.15,2013-01-21 01:40:00,
2013-01-20 17:45:00,57.0,42.8,30.01,WSW,257,0.0,2.0,59,0.00,,,0.00,Wunderground v.1.15,2013-01-21 01:45:00,
2013-01-20 17:50:00,56.5,42.3,30.01,WSW,257,0.0,0.0,59,0.00,,,0.00,Wunderground v.1.15,2013-01-21 01:50:00,
2013-01-20 17:55:00,56.0,41.4,30.01,WSW,257,0.0,0.0,58,0.00,,,0.00,Wunderground v.1.15,2013-01-21 01:55:00,
2013-01-20 18:00:00,55.6,41.5,30.02,WSW,257,0.0,0.0,59,0.00,,,0.00,Wunderground v.1.15,2013-01-21 02:00:00,
2013-01-20 18:05:00,55.1,41.0,30.02,WSW,257,2.0,3.0,59,0.00,,,0.00,Wunderground v.1.15,2013-01-21 02:05:00,
2013-01-20 18:10:00,55.3,40.8,30.02,WSW,257,0.0,1.0,58,0.00,,,0.00,Wunderground v.1.15,2013-01-21 02:10:00,
2013-01-20 18:15:00,55.1,40.6,30.03,WSW,257,0.0,1.0,58,0.00,,,0.00,Wunderground v.1.15,2013-01-21 02:15:00,
2013-01-20 18:20:00,55.0,39.6,30.03,WSW,257,3.0,3.0,56,0.00,,,0.00,Wunderground v.1.15,2013-01-21 02:20:00,
2013-01-20 18:25:00,55.3,39.4,30.03,WSW,257,0.0,3.0,55,0.00,,,0.00,Wunderground v.1.15,2013-01-21 02:25:00,
2013-01-20 18:30:00,55.1,39.7,30.03,WSW,257,2.0,2.0,56,0.00,,,0.00,Wunderground v.1.15,2013-01-21 02:30:00,
2013-01-20 18:35:00,55.0,38.2,30.03,WSW,257,0.0,2.0,53,0.00,,,0.00,Wunderground v.1.15,2013-01-21 02:35:00,
2013-01-20 18:40:00,54.8,38.0,30.03,WSW,257,2.0,2.0,53,0.00,,,0.00,Wunderground v.1.15,2013-01-21 02:40:00,
2013-01-20 18:45:00,54.8,37.0,30.03,WSW,257,0.0,2.0,51,0.00,,,0.00,Wunderground v.1.15,2013-01-21 02:45:00,
2013-01-20 18:50:00,54.7,35.9,30.03,WSW,257,2.0,2.0,49,0.00,,,0.00,Wunderground v.1.15,2013-01-21 02:50:00,
2013-01-20 18:55:00,55.0,36.7,30.03,WSW,257,0.0,2.0,50,0.00,,,0.00,Wunderground v.1.15,2013-01-21 02:55:00,
2013-01-20 19:00:00,54.8,38.0,30.03,WSW,257,0.0,0.0,53,0.00,,,0.00,Wunderground v.1.15,2013-01-21 03:00:00,
2013-01-20 19:05:00,54.1,37.8,30.03,WSW,257,1.0,1.0,54,0.00,,,0.00,Wunderground v.1.15,2013-01-21 03:05:00,
2013-01-20 19:10:00,53.6,36.4,30.03,WSW,257,0.0,0.0,52,0.00,,,0.00,Wunderground v.1.15,2013-01-21 03:10:00,
2013-01-20 19:15:00,53.6,35.9,30.03,WSW,257,0.0,2.0,51,0.00,,,0.00,Wunderground v.1.15,2013-01-21 03:15:00,
2013-01-20 19:20:00,53.6,36.4,30.03,WSW,257,0.0,1.0,52,0.00,,,0.00,Wunderground v.1.15,2013-01-21 03:20:00,
2013-01-20 19:25:00,53.6,36.4,30.03,WSW,257,0.0,1.0,52,0.00,,,0.00,Wunderground v.1.15,2013-01-21 03:25:00,
2013-01-20 19:30:00,53.3,35.1,30.03,WSW,257,0.0,0.0,50,0.00,,,0.00,Wunderground v.1.15,2013-01-21 03:30:00,
2013-01-20 19:35:00,53.5,34.3,30.03,WSW,257,2.0,3.0,48,0.00,,,0.00,Wunderground v.1.15,2013-01-21 03:35:00,
2013-01-20 19:40:00,53.8,36.1,30.03,WSW,257,0.0,1.0,51,0.00,,,0.00,Wunderground v.1.15,2013-01-21 03:40:00,
2013-01-20 19:45:00,53.3,33.6,30.03,WSW,257,0.0,2.0,47,0.00,,,0.00,Wunderground v.1.15,2013-01-21 03:45:00,
2013-01-20 19:50:00,52.9,33.7,30.03,WSW,257,0.0,0.0,48,0.00,,,0.00,Wunderground v.1.15,2013-01-21 03:50:00,
2013-01-20 19:55:00,52.5,33.9,30.03,WSW,257,0.0,2.0,49,0.00,,,0.00,Wunderground v.1.15,2013-01-21 03:55:00,
2013-01-20 20:00:00,51.9,33.3,30.04,WSW,257,0.0,1.0,49,0.00,,,0.00,Wunderground v.1.15,2013-01-21 04:00:00,
2013-01-20 20:05:00,51.6,33.0,30.04,WSW,257,0.0,1.0,49,0.00,,,0.00,Wunderground v.1.15,2013-01-21 04:05:00,
2013-01-20 20:10:00,51.4,32.9,30.04,WSW,257,1.0,1.0,49,0.00,,,0.00,Wunderground v.1.15,2013-01-21 04:10:00,
2013-01-20 20:15:00,51.4,31.3,30.04,WSW,257,0.0,2.0,46,0.00,,,0.00,Wunderground v.1.15,2013-01-21 04:15:00,
2013-01-20 20:20:00,51.4,32.9,30.04,WSW,257,0.0,0.0,49,0.00,,,0.00,Wunderground v.1.15,2013-01-21 04:20:00,
2013-01-20 20:25:00,51.1,32.1,30.04,WSW,257,0.0,2.0,48,0.00,,,0.00,Wunderground v.1.15,2013-01-21 04:25:00,
2013-01-20 20:30:00,51.1,31.0,30.04,WSW,257,0.0,2.0,46,0.00,,,0.00,Wunderground v.1.15,2013-01-21 04:30:00,
2013-01-20 20:35:00,51.1,32.1,30.04,WSW,257,0.0,2.0,48,0.00,,,0.00,Wunderground v.1.15,2013-01-21 04:35:00,
2013-01-20 20:40:00,50.8,32.3,30.04,WSW,257,0.0,1.0,49,0.00,,,0.00,Wunderground v.1.15,2013-01-21 04:40:00,
2013-01-20 20:45:00,50.8,31.8,30.05,WSW,255,2.0,5.0,48,0.00,,,0.00,Wunderground v.1.15,2013-01-21 04:45:00,
2013-01-20 20:50:00,51.4,30.7,30.05,WSW,256,0.0,1.0,45,0.00,,,0.00,Wunderground v.1.15,2013-01-21 04:50:00,
2013-01-20 20:55:00,52.2,29.8,30.05,WSW,255,1.0,3.0,42,0.00,,,0.00,Wunderground v.1.15,2013-01-21 04:55:00,
2013-01-20 21:01:00,53.6,27.9,30.05,WSW,256,3.0,3.0,37,0.00,,,0.00,Wunderground v.1.15,2013-01-21 05:01:00,
2013-01-20 21:02:00,53.6,27.3,30.05,WSW,255,2.0,3.0,36,0.00,,,0.00,Wunderground v.1.15,2013-01-21 05:02:00,
2013-01-20 21:03:00,54.1,28.4,30.05,WSW,255,0.0,3.0,37,0.00,,,0.00,Wunderground v.1.15,2013-01-21 05:03:00,
2013-01-20 21:08:00,54.1,29.7,30.05,SSE,151,2.0,3.0,39,0.00,,,0.00,Wunderground v.1.15,2013-01-21 05:08:00,
2013-01-20 21:13:00,53.6,33.3,30.05,SSE,151,0.0,1.0,46,0.00,,,0.00,Wunderground v.1.15,2013-01-21 05:13:00,
2013-01-20 21:18:00,52.8,29.7,30.06,SSE,151,0.0,1.0,41,0.00,,,0.00,Wunderground v.1.15,2013-01-21 05:18:00,
2013-01-20 21:23:00,52.6,29.5,30.06,SSE,151,0.0,1.0,41,0.00,,,0.00,Wunderground v.1.15,2013-01-21 05:23:00,
2013-01-20 21:28:00,52.3,31.0,30.06,SSE,151,0.0,1.0,44,0.00,,,0.00,Wunderground v.1.15,2013-01-21 05:28:00,
2013-01-20 21:33:00,51.7,30.5,30.06,SSE,151,0.0,1.0,44,0.00,,,0.00,Wunderground v.1.15,2013-01-21 05:33:00,
2013-01-20 21:38:00,51.4,30.2,30.06,SSE,154,0.0,3.0,44,0.00,,,0.00,Wunderground v.1.15,2013-01-21 05:38:00,
2013-01-20 21:43:00,51.1,29.4,30.06,SSE,154,1.0,2.0,43,0.00,,,0.00,Wunderground v.1.15,2013-01-21 05:43:00,
2013-01-20 21:48:00,51.4,29.1,30.06,WSW,249,2.0,3.0,42,0.00,,,0.00,Wunderground v.1.15,2013-01-21 05:48:00,
2013-01-20 21:53:00,52.9,29.2,30.06,WSW,250,0.0,3.0,40,0.00,,,0.00,Wunderground v.1.15,2013-01-21 05:53:00,
2013-01-20 21:58:00,54.2,28.5,30.06,WSW,250,0.0,3.0,37,0.00,,,0.00,Wunderground v.1.15,2013-01-21 05:58:00,
2013-01-20 22:03:00,54.8,27.6,30.06,WSW,250,3.0,3.0,35,0.00,,,0.00,Wunderground v.1.15,2013-01-21 06:03:00,
2013-01-20 22:08:00,55.9,27.2,30.06,West,264,2.0,4.0,33,0.00,,,0.00,Wunderground v.1.15,2013-01-21 06:08:00,
2013-01-20 22:13:00,55.9,28.6,30.06,West,264,0.0,3.0,35,0.00,,,0.00,Wunderground v.1.15,2013-01-21 06:13:00,
2013-01-20 22:18:00,55.1,28.6,30.06,West,264,0.0,3.0,36,0.00,,,0.00,Wunderground v.1.15,2013-01-21 06:18:00,
2013-01-20 22:23:00,54.5,28.7,30.06,West,264,1.0,1.0,37,0.00,,,0.00,Wunderground v.1.15,2013-01-21 06:23:00,
2013-01-20 22:28:00,54.4,28.0,30.06,West,264,1.0,2.0,36,0.00,,,0.00,Wunderground v.1.15,2013-01-21 06:28:00,
2013-01-20 22:33:00,54.2,29.1,30.06,West,264,0.0,1.0,38,0.00,,,0.00,Wunderground v.1.15,2013-01-21 06:33:00,
2013-01-20 22:38:00,54.1,28.4,30.06,West,264,1.0,3.0,37,0.00,,,0.00,Wunderground v.1.15,2013-01-21 06:38:00,
2013-01-20 22:43:00,54.5,29.4,30.06,West,264,3.0,3.0,38,0.00,,,0.00,Wunderground v.1.15,2013-01-21 06:43:00,
2013-01-20 22:48:00,54.5,29.4,30.06,West,264,0.0,3.0,38,0.00,,,0.00,Wunderground v.1.15,2013-01-21 06:48:00,
2013-01-20 22:53:00,54.2,29.1,30.06,West,264,2.0,2.0,38,0.00,,,0.00,Wunderground v.1.15,2013-01-21 06:53:00,
2013-01-20 22:58:00,54.1,29.0,30.06,West,264,0.0,2.0,38,0.00,,,0.00,Wunderground v.1.15,2013-01-21 06:58:00,
2013-01-20 23:03:00,54.1,28.4,30.06,West,264,0.0,1.0,37,0.00,,,0.00,Wunderground v.1.15,2013-01-21 07:03:00,
2013-01-20 23:08:00,53.9,28.8,30.06,West,264,0.0,1.0,38,0.00,,,0.00,Wunderground v.1.15,2013-01-21 07:08:00,
2013-01-20 23:13:00,53.5,29.1,30.05,West,264,0.0,0.0,39,0.00,,,0.00,Wunderground v.1.15,2013-01-21 07:13:00,
2013-01-20 23:18:00,53.1,29.4,30.05,West,264,0.0,1.0,40,0.00,,,0.00,Wunderground v.1.15,2013-01-21 07:18:00,
2013-01-20 23:23:00,52.6,30.7,30.05,West,264,0.0,2.0,43,0.00,,,0.00,Wunderground v.1.15,2013-01-21 07:23:00,
2013-01-20 23:29:00,52.2,29.8,30.04,West,264,0.0,2.0,42,0.00,,,0.00,Wunderground v.1.15,2013-01-21 07:29:00,
2013-01-20 23:34:00,52.2,29.2,30.04,West,264,0.0,0.0,41,0.00,,,0.00,Wunderground v.1.15,2013-01-21 07:34:00,
2013-01-20 23:39:00,52.6,28.3,30.04,West,264,0.0,2.0,39,0.00,,,0.00,Wunderground v.1.15,2013-01-21 07:39:00,
2013-01-20 23:44:00,53.3,27.0,30.03,West,264,0.0,2.0,36,0.00,,,0.00,Wunderground v.1.15,2013-01-21 07:44:00,
2013-01-20 23:49:00,53.8,26.8,30.03,West,264,0.0,2.0,35,0.00,,,0.00,Wunderground v.1.15,2013-01-21 07:49:00,
2013-01-20 23:54:00,53.9,27.5,30.03,West,264,0.0,0.0,36,0.00,,,0.00,Wunderground v.1.15,2013-01-21 07:54:00,
2013-01-20 23:59:00,53.8,27.4,30.02,West,264,0.0,2.0,36,0.00,,,0.00,Wunderground v.1.15,2013-01-21 07:59:00,